Theta_e
318 320 321 322 321 321 322 327 326 325 327 331 338 340 339 338 337 336 335 334 333 329 321 319 314 311 307 304 303 302 302 301 300 301 301 302 301 300 300 300 300 298 298
315 316 318 321 321 322 322 321 326 325 324 325 331 337 339 338 337 337 335 333 329 322 319 317 311 307 305 303 302 302 301 299 298 298 298 299 299 299 299 300 298 297 296
314 315 314 317 320 320 321 322 323 325 325 326 330 337 338 335 333 332 330 326 322 318 317 310 307 306 304 302 302 301 301 300 298 296 296 296 297 295 298 299 298 297 296
313 313 313 313 316 319 320 321 323 324 325 326 333 337 333 326 327 326 321 315 314 314 310 308 306 304 303 302 301 300 299 299 298 297 296 295 295 293 293 296 296 295 295
311 311 311 313 315 315 319 321 321 324 325 327 333 335 330 326 322 319 317 314 312 310 307 306 303 303 302 301 299 298 298 297 296 295 295 295 295 295 293 291 293 294 293
311 311 313 314 315 315 314 315 323 323 326 330 334 332 326 321 316 314 311 309 308 304 303 303 302 303 302 299 298 297 296 295 294 294 294 293 293 292 292 289 290 290 292
312 312 315 315 315 314 314 315 317 324 326 332 332 330 323 321 316 311 307 305 302 301 301 301 300 300 300 297 297 296 295 294 294 294 293 293 292 292 291 291 290 289 290
313 314 314 315 316 316 315 316 317 325 328 332 330 325 323 317 311 309 306 303 301 301 300 299 299 298 297 296 295 294 294 293 293 293 292 292 292 291 291 290 290 289 288
314 314 313 314 315 316 316 317 318 325 328 330 326 324 319 312 309 305 304 303 301 300 299 298 297 296 295 295 294 293 293 292 292 292 291 291 291 291 290 290 290 289 288
314 313 312 313 316 316 315 318 320 325 327 327 325 317 314 311 307 305 303 301 300 298 297 296 295 294 294 293 293 292 292 291 291 291 291 290 290 290 290 289 289 288 288
315 313 312 314 316 317 316 319 322 324 325 325 316 313 310 306 303 301 300 298 297 297 296 295 294 293 293 292 292 291 291 290 290 290 290 290 290 289 289 288 288 287 287
313 313 313 314 315 318 319 321 323 323 322 314 308 307 302 300 299 298 297 297 296 295 294 294 293 292 292 291 291 290 290 290 290 290 290 290 289 288 288 287 287 287 287
311 313 313 313 313 318 321 322 321 319 308 307 302 300 299 297 297 296 296 296 295 294 293 293 292 291 291 290 289 289 289 290 290 290 290 289 289 288 287 287 286 286 286
310 313 313 312 313 318 319 317 310 306 302 300 298 297 296 296 295 295 295 294 294 293 292 292 291 290 289 289 289 289 290 290 290 290 289 289 288 288 287 286 286 286 286
311 313 313 311 313 315 312 306 305 301 299 297 297 296 295 295 294 293 293 293 292 291 291 291 290 289 289 288 288 288 289 289 289 288 288 288 287 287 287 287 287 287 286
311 312 312 312 313 308 303 301 300 299 297 296 295 294 294 293 293 293 292 292 291 290 290 289 289 289 287 287 286 287 287 286 287 287 287 287 286 286 287 287 286 286 286
312 313 311 310 302 300 299 297 297 297 295 294 293 293 292 292 291 291 291 290 289 289 289 288 288 287 287 287 285 286 286 285 286 287 287 286 286 286 285 285 286 286 286
311 312 308 301 297 296 295 294 294 294 293 292 292 291 291 291 291 290 291 291 289 289 288 288 287 287 287 286 285 284 284 285 286 286 286 286 286 286 286 286 286 285 285
312 307 299 295 294 294 294 293 293 293 293 292 292 292 292 291 291 290 289 289 289 288 287 287 287 286 286 285 284 285 284 285 285 285 285 285 285 285 286 286 285 285 284
298 296 294 294 294 294 294 293 293 294 293 293 292 292 292 290 289 289 289 288 288 287 287 286 286 285 285 285 285 285 284 284 284 285 284 284 285 285 286 286 285 284 283
295 294 295 294 294 294 294 294 293 292 291 291 290 290 290 289 289 288 288 288 287 287 286 286 286 285 285 284 285 285 284 284 284 285 284 284 284 285 285 285 284 283 283
299 297 296 297 296 296 295 294 293 292 291 289 289 288 288 288 288 287 287 287 287 286 286 286 285 285 285 284 284 284 284 285 285 284 284 284 285 285 284 284 282 283 283
298 298 298 297 297 295 291 290 289 288 288 288 287 288 287 287 287 287 286 286 286 286 285 285 285 284 284 283 283 284 284 283 284 283 283 284 283 283 282 281 282 281 280
294 293 291 290 289 289 288 287 287 287 287 287 287 287 287 287 287 286 286 286 285 285 284 284 283 283 282 282 282 282 283 282 282 283 283 282 281 281 280 280 280 280 279
294 291 289 288 287 287 287 287 287 288 287 287 287 287 286 286 286 286 285 285 284 283 282 282 281 281 281 281 283 283 282 283 283 284 282 280 280 279 279 279 279 279 279
291 289 287 287 287 287 287 288 288 288 287 287 286 286 286 286 285 285 284 284 283 282 281 281 281 281 281 282 282 282 282 283 283 281 279 279 279 279 279 278 278 278 278
Wind_Speed
12 21 24 24 24 30 30 33 31 31 29 28 30 30 30 28 29 29 30 32 32 26 24 24 22 18 15 12 9 8 5 4 6 4 4 4 5 3 5 8 6 7 7
12 15 21 26 29 26 27 29 29 36 37 32 30 27 27 27 31 30 29 30 29 29 26 26 23 20 19 16 11 7 6 5 7 4 2 3 1 4 4 8 8 4 7
16 15 14 21 26 29 31 29 30 29 37 34 30 22 29 28 27 28 26 25 27 28 26 26 23 20 17 16 12 10 6 6 4 6 3 2 1 5 2 7 7 7 8
15 15 16 16 22 26 33 35 29 32 30 35 31 34 29 25 28 34 31 26 26 27 27 26 22 19 17 15 12 9 9 7 7 4 3 1 1 1 4 3 7 16 8
10 10 10 18 26 24 24 38 37 30 30 36 32 35 29 23 29 31 30 29 27 27 27 25 24 21 17 14 13 10 9 8 7 4 2 1 3 7 6 4 4 16 20
6 6 11 12 15 24 27 21 32 36 28 35 32 36 33 31 30 32 32 32 30 28 27 26 23 20 19 16 14 11 9 7 6 4 2 2 1 1 2 2 5 12 17
3 6 5 7 13 19 20 26 20 29 29 31 29 33 31 33 33 36 32 32 31 29 26 25 23 21 20 18 13 10 8 6 5 3 3 3 4 6 8 11 11 5 16
2 5 7 7 17 21 23 24 21 25 26 30 30 29 27 32 31 34 34 30 32 32 29 26 23 21 19 16 13 10 7 4 2 2 4 4 6 7 9 10 10 6 5
6 6 8 12 20 23 22 23 24 25 27 31 30 29 34 31 31 30 34 32 31 34 29 25 22 19 17 15 11 8 5 3 2 3 4 6 7 8 10 11 12 10 5
5 4 6 11 21 26 20 25 25 28 28 29 27 33 33 32 32 32 32 30 30 30 29 25 21 19 16 13 12 8 5 4 3 3 6 7 9 11 13 14 14 15 17
3 3 5 12 22 25 13 22 25 24 28 28 31 33 32 31 31 31 31 33 34 32 27 24 21 17 14 11 9 6 4 2 3 5 7 9 11 13 13 14 17 19 19
5 1 3 7 18 20 14 22 24 24 27 34 35 35 34 33 31 31 33 33 32 28 26 23 20 16 12 9 7 5 2 3 4 6 9 11 11 13 15 16 17 18 20
7 4 3 6 9 15 6 15 22 23 32 34 34 32 31 29 32 33 30 31 30 27 25 23 20 16 12 9 6 3 3 4 6 8 10 12 14 16 16 17 16 18 22
4 6 3 4 8 5 5 19 25 29 31 31 31 29 29 29 32 31 29 31 29 27 24 21 18 12 9 6 3 0 3 6 8 10 12 13 15 17 16 17 21 19 21
1 7 4 3 3 2 13 23 26 29 30 30 28 28 30 31 33 31 31 30 26 23 21 18 14 13 7 4 2 3 4 7 10 12 14 14 13 15 18 19 18 21 23
5 8 5 4 3 10 15 21 27 27 30 28 27 30 33 33 33 30 29 26 24 23 18 15 12 11 6 2 3 4 7 9 10 13 14 15 16 16 16 18 19 21 24
6 3 6 5 13 15 17 21 25 27 26 27 29 30 31 29 28 29 29 25 20 18 16 12 9 7 3 1 4 5 9 11 11 14 16 17 16 17 19 19 20 21 23
8 3 7 13 18 20 20 23 24 24 25 25 27 31 34 31 23 23 24 20 20 16 13 10 7 5 2 4 6 8 10 10 12 15 17 16 18 18 20 22 21 25 26
5 10 18 19 21 23 23 26 25 25 25 24 28 30 31 28 26 19 22 20 18 14 11 7 3 3 1 4 8 8 11 12 13 15 16 17 20 20 20 22 28 26 25
18 19 23 23 24 24 26 27 24 25 23 23 27 24 24 21 24 22 20 16 13 11 7 4 1 2 3 3 6 8 11 14 15 16 19 17 18 20 21 26 26 23 24
19 21 20 21 23 25 28 24 22 22 23 25 26 22 22 21 21 20 17 14 11 8 5 3 2 4 5 7 6 9 12 14 16 18 20 20 20 23 26 27 26 26 27
17 19 19 19 21 23 27 24 21 23 26 24 26 26 23 20 18 18 15 11 9 5 3 1 2 2 3 6 9 10 12 14 19 21 21 22 23 27 27 25 23 24 24
16 15 18 19 18 19 20 26 24 24 29 28 25 22 20 18 16 15 12 9 6 4 3 3 3 5 7 9 9 9 13 17 19 20 22 24 26 26 23 21 22 21 22
14 18 20 20 21 22 22 24 27 26 27 25 24 23 21 17 14 11 9 7 4 4 4 6 7 9 11 11 13 18 18 18 21 23 22 22 24 19 19 21 20 21 21
15 18 18 20 21 23 23 24 25 26 25 25 22 19 16 14 12 9 6 5 4 5 5 5 8 10 13 15 15 18 20 21 22 24 23 23 20 20 19 19 20 21 21
18 19 20 22 22 24 24 23 23 26 26 23 19 16 14 11 9 7 6 5 5 7 7 7 8 11 11 13 16 18 20 21 21 19 16 18 18 17 18 19 21 22 23
Wind_Direction
249 248 247 251 244 236 235 215 209 203 203 209 200 196 202 191 190 192 196 194 194 196 190 179 176 175 174 163 166 151 140 68 22 11 339 245 250 245 231 238 249 282 283
242 245 244 230 238 246 246 241 212 199 202 209 207 201 192 181 185 185 182 185 188 188 189 182 175 171 170 167 162 174 141 84 42 45 308 354 242 241 246 223 235 277 285
242 245 250 239 228 226 238 246 229 214 200 200 203 190 173 165 157 167 174 184 190 187 185 178 173 170 170 162 161 164 156 135 79 58 82 28 294 330 351 227 267 271 294
242 247 251 261 240 226 222 234 240 224 216 196 194 188 171 162 176 173 170 168 185 183 180 177 173 169 166 158 157 157 145 141 133 121 66 93 85 103 328 353 306 309 306
215 229 229 231 251 264 233 221 232 230 217 198 192 182 173 172 176 174 173 180 181 182 177 178 172 167 161 156 163 162 141 140 132 134 135 167 229 244 215 280 290 302 302
40 355 330 310 245 249 253 255 223 217 212 195 189 181 172 167 168 174 173 178 176 177 174 171 169 168 168 166 163 161 150 142 142 150 153 204 214 309 305 298 310 298 310
42 314 335 317 296 243 247 244 237 209 200 191 186 181 176 182 183 174 170 165 165 173 170 168 169 168 161 166 161 158 150 145 151 186 205 232 262 279 288 293 296 285 306
61 18 325 305 287 272 223 228 219 203 191 181 177 178 180 179 176 172 168 164 164 167 162 167 169 165 163 159 160 155 153 166 165 228 252 263 270 282 287 293 303 305 270
82 15 340 313 300 283 223 208 209 195 191 178 174 179 174 167 166 164 164 164 161 163 162 165 166 162 158 157 154 152 161 164 205 251 268 285 293 286 288 288 292 283 296
72 29 333 307 308 297 249 204 200 193 184 173 176 155 163 164 165 160 160 158 157 158 159 162 160 156 156 159 157 166 181 186 198 258 274 283 288 284 286 293 293 292 289
320 359 312 314 307 301 245 195 186 186 171 171 143 149 153 152 152 152 153 152 154 157 157 157 154 154 157 155 153 164 189 213 250 271 288 287 288 294 292 291 295 293 290
199 246 323 312 302 299 279 175 178 172 153 135 139 147 147 142 144 143 147 149 148 154 153 151 149 149 154 153 161 163 200 254 276 287 286 289 293 290 297 301 299 299 302
202 150 46 315 295 308 265 168 147 132 129 141 139 139 140 140 141 143 145 147 144 146 149 150 154 160 156 158 160 183 222 270 285 291 290 291 293 294 297 298 298 304 304
234 141 106 300 290 304 88 99 100 114 123 132 133 136 137 137 134 138 137 140 145 149 148 150 149 147 152 155 152 190 303 299 297 296 294 294 295 294 294 296 300 299 297
217 129 122 238 298 33 98 102 106 115 124 125 132 135 133 133 130 131 133 139 143 144 149 146 142 141 133 157 214 263 286 294 297 296 297 297 298 297 297 300 306 305 302
290 123 133 192 94 95 97 101 111 118 123 127 131 131 127 125 127 128 127 137 149 145 139 141 147 126 150 176 294 317 312 307 304 303 302 299 300 301 304 303 301 300 304
323 122 154 140 98 96 103 99 115 124 125 127 126 123 117 116 121 126 137 143 136 131 139 136 119 118 169 319 313 324 316 314 315 307 301 300 300 303 303 301 299 296 299
251 209 125 109 111 111 110 109 112 115 117 115 111 111 117 116 119 134 137 135 141 140 134 120 138 146 35 295 311 324 322 320 312 308 306 307 312 309 306 305 307 309 309
203 113 107 109 110 111 113 109 107 106 102 102 106 115 125 130 129 137 148 138 137 132 124 122 121 81 337 300 313 326 333 325 319 321 319 318 315 315 309 315 314 309 303
86 100 106 112 110 116 117 111 112 112 114 116 119 126 131 132 142 143 128 128 127 117 118 113 56 326 327 278 319 328 329 330 327 321 320 319 316 314 314 311 310 307 311
83 93 101 103 113 115 113 107 113 115 118 121 125 130 129 138 132 128 127 120 116 108 92 55 6 298 300 305 314 321 322 320 310 311 317 318 317 313 312 312 313 311 308
89 103 109 112 116 119 121 117 114 124 124 123 125 130 127 123 130 121 115 111 105 99 94 32 351 343 321 322 319 313 313 318 321 319 319 317 313 315 313 312 311 311 315
127 123 126 125 124 119 121 120 127 130 126 122 115 119 128 131 117 113 109 103 93 80 55 1 346 344 337 333 327 324 322 322 318 317 315 316 316 316 315 318 318 320 321
109 108 102 100 100 111 115 113 123 122 118 118 124 127 119 114 110 107 106 99 86 65 35 17 359 339 335 332 326 327 326 321 318 317 318 319 318 319 320 322 323 321 319
98 104 104 103 104 110 111 118 122 124 116 119 119 116 116 114 112 104 95 86 62 19 359 345 335 334 329 328 324 324 324 322 318 320 323 326 329 330 328 325 321 319 317
101 103 106 109 112 113 113 118 127 127 124 120 118 115 114 112 102 82 65 40 25 8 359 343 332 329 324 323 324 325 324 322 324 322 328 326 326 323 322 319 317 316 314